Location: Unspecified
(0.0000°N, 0.0000°E)
Time: 03:14:14
(UTC+00:00)

N. Korean satellite - Pass Details

Date: 11 November 2019
Orbit: 456 x 506 km, 97.2° (Epoch: 10 November)

Event Time Altitude Azimuth Distance (km) Brightness Sun altitude
Rises 18:23:30 0° 206° (SSW) 2,484 10.9 -9.4°
Reaches altitude 10° 18:27:14 10° 249° (WSW) 1,616 10.8 -10.3°
Maximum altitude 18:27:51 10° 259° (W) 1,595 10.7 -10.4°
Drops below altitude 10° 18:28:27 10° 269° (W) 1,619 10.6 -10.6°
Sets 18:32:14 0° 312° (NW) 2,504 10.6 -11.5°
